Regional Weather Roundup
Issued by NWS

Home | Current Version | Previous Version | Graphics & Text | Print | Product List | Glossary On
Versions: 1 2 3 4 5 6 7 8 9 10 11 12 13 14 15 16 17 18 19 20 21 22 23 24 25 26 27 28 29 30 31 32 33 34 35 36 37 38 39 40 41 42 43 44 45 46 47 48 49 50
000
ASUS43 KDTX 221001
RWRMI
MICHIGAN HOURLY REGIONAL WEATHER ROUNDUP
NATIONAL WEATHER SERVICE DETROIT/PONTIAC MI
500 AM EST MON DEC 22 2014

NOTE: "FAIR" INDICATES FEW OR NO CLOUDS BELOW 12,000 FEET WITH NO
SIGNIFICANT WEATHER AND/OR OBSTRUCTION TO VISIBILITY.

MIZ047>049-052>055-059>063-066>070-074>076-081>083-221100-
SOUTHEAST LOWER MICHIGAN

CITY           SKY/WX    TMP DP  RH WIND       PRES   REMARKS
ADRIAN         MOCLDY    23  21  92 E5        30.11F FOG     WCI  17
ALMA           MOCLDY    26  25  95 CALM      30.10R FOG
ANN ARBOR      MOCLDY    26  23  88 E6        30.10F FOG     WCI  19
BAD AXE        MOCLDY    28  25  89 S8        30.13F WCI  19
CARO           MOCLDY    28  23  84 SE8       30.11F WCI  19
DETROIT CITY   MOCLDY    29  22  75 E3        30.13F
DETROIT        CLOUDY    27  23  85 E3        30.13F FOG
FLINT          MOCLDY    28  23  81 SE8       30.11F WCI  20
GROSSE ILE     MOCLDY    28  25  86 E3        30.12R
HILLSDALE      MOCLDY    25  23  94 SE7       30.05F FOG     WCI  17
HOWELL         MOCLDY    26  24  95 SE6       30.08F FOG     WCI  19

CITY           SKY/WX    TMP DP  RH WIND       PRES   REMARKS
JACKSON        MOCLDY    24  21  88 SE7       30.08F FOG     WCI  16
LAMBERTVILLE   MOCLDY    27  23  86 CALM      30.10F FOG
LANSING        MOCLDY    27  23  85 SE8       30.09F FOG     WCI  19
LAPEER         FAIR      26  23  90 CALM      30.12S
MASON          MOCLDY    26  23  88 SE5       30.08F FOG     WCI  21
MONROE         MOCLDY    30  27  86 E3        30.09F
MT. CLEMENS    CLOUDY    31  27  84 SE7       30.11S WCI  24
PONTIAC        MOCLDY    26  23  88 SE3       30.10F
PORT HOPE        N/A     30  24  78 SE5       30.12F WCI  25
PORT HURON     CLOUDY    30  25  80 S3        30.14S
TRI CITIES     MOCLDY    29  23  78 SE6       30.12S WCI  23
TROY           MOCLDY    30  24  81 CALM      30.14S
SAGINAW HB     MOCLDY    28  27  93 SE6       30.11F WCI  22
$$
MIZ043>046-050>051-056>058-064>065-071>073-077>080-221100-
SOUTHWEST LOWER MICHIGAN

CITY           SKY/WX    TMP DP  RH WIND       PRES   REMARKS
BATTLE CREEK   MOCLDY    28  22  78 SE9       30.05F WCI  19
BENTON HARBOR  PTCLDY    29  25  85 SE10      30.01F WCI  20
BIG RAPIDS     CLOUDY    29  27  93 SE8       30.04F FOG     WCI  21
COLDWATER      PTCLDY    26  22  87 SE5       30.05S FOG     WCI  20
FREMONT        PTSUNNY   30  25  83 SE6       30.03F WCI  24
HOLLAND        MOCLDY    31  24  75 E12       30.03F WCI  22
GRAND RAPIDS   MOCLDY    28  23  81 SE8       30.05F WCI  20
IONIA          FAIR      28  25  91 SE7       30.07S FOG     WCI  20
KALAMAZOO      MOCLDY    28  22  78 SE6       30.03F WCI  22
LUDINGTON      CLOUDY    32  26  78 SE10      30.02S WCI  24
MARSHALL       MOCLDY    25  22  87 E5        30.05F WCI  19
MOUNT PLEASANT CLOUDY    27  25  90 CALM      30.09S FOG
MUSKEGON       CLOUDY    31  24  75 SE9       30.03F WCI  23
SOUTH HAVEN    MOCLDY    30  25  81 SE8       30.02S WCI  23
$$
MIZ016>042-221100-
NORTHERN LOWER MICHIGAN

CITY           SKY/WX    TMP DP  RH WIND       PRES   REMARKS
ALPENA         MOCLDY    29  24  82 S9        30.12S WCI  20
BEAVER ISLAND  CLOUDY    33  29  85 SE7       30.03S WCI  27
BELLAIRE       CLOUDY    31  26  80 SE8       30.05F WCI  24
CADILLAC       CLOUDY    28  24  87 SE8       30.02F WCI  20
CHARLEVOIX     CLOUDY    31  26  84 SE7       30.07S WCI  24
FRANKFORT      CLOUDY    32  27  83 S8        30.01F WCI  25
GAYLORD        CLOUDY    26  23  88 S13       30.04S FOG     WCI  15
GRAYLING       CLOUDY    26  24  93 SE3       30.07F FOG
HARBOR SPRINGS CLOUDY    31  25  77 SE5       30.06S WCI  26
HOUGHTON LAKE  CLOUDY    26  23  88 SE6       30.07S WCI  19
MANISTEE       CLOUDY    30  25  80 SE8       30.03S WCI  23
OSCODA         PTCLDY    29  26  86 S5        30.13S WCI  24
PELLSTON       CLOUDY    30  25  81 SE10      30.06F WCI  21
ROGERS CITY    CLOUDY    29  27  90 S8        30.11S WCI  21
TRAVERSE CITY  CLOUDY    32  26  78 S6        30.02F WCI  26
$$
MIZ007>008-015-221100-
EASTERN UPPER MICHIGAN

CITY           SKY/WX    TMP DP  RH WIND       PRES   REMARKS
KINROSS        CLOUDY    30  28  93 S9        30.06S WCI  22
MACKINAC ISLAN CLOUDY    31  26  81 S10G18    30.05F WCI  22
S. S. MARIE    LGT SNOW  32  27  81 SE10      30.05S WCI  24
MUNISING         N/A     36  31  82 S10G21    29.94R WCI  28
$$
MIZ004>006-011>014-085-221100-
CENTRAL UPPER MICHIGAN

CITY           SKY/WX    TMP DP  RH WIND       PRES   REMARKS
MANISTIQUE     CLOUDY    33  32  95 S13G20    29.99S FOG     WCI  24
ESCANABA       CLOUDY    36  30  80 S12       29.95S WCI  27
MENOMINEE      CLOUDY    36  30  80 S10       29.94S WCI  28
SAWYER-GWINN   LGT SNOW  33  32  95 S17G24    29.90S WCI  22
$$
MIZ001>003-009>011-084-221100-
WESTERN UPPER MICHIGAN

CITY           SKY/WX    TMP DP  RH WIND       PRES   REMARKS
IRON MOUNTAIN  CLOUDY    33  30  88 S10       29.88F FOG     WCI  25
HOUGHTON       LGT SNOW  32  31  96 S8        29.83S FOG     WCI  25
COPPER HARBOR    N/A     34  32  92 SW10      29.85S WCI  26
IRONWOOD       CLOUDY    36  34  93 S5        29.75S WCI  32
$$

ABBREVIATIONS USED IN REMARKS
   TC - TEMPERATURE IN CELSIUS
  WCI - WIND CHILL INDEX
   HX - HEAT INDEX
  VSB - VISIBILITY



USA.gov is the U.S. government's official web portal to all federal, state and local government web resources and services.